[[{"header":{"parameterUnit":"m.s-1","parameterCategory":1,"la1":30.2991,"la2":30.254,"lo1":-89.0895,"lo2":-89.0444,"dy":0.0017,"dx":0.0017,"nx":28,"ny":28,"refTime":"2024-04-10T09:00:00:Z","depth":0,"parameterNumber":2,"parameterNumberName":"U-component_of_WINDS"},"data":[0,0,0,0,0,0,0,0,0,0,0,0,0,0,0,0,0,0,0,0,0,0,0,0,0,0,0,0,0,0,0,0,0,0,0,0,0,0,0,0,0,0,0,0,0,0,0,0,0,0,0,0,0,0,0,0,0,0,-4.8546,-4.8546,0,-4.8574,-4.8574,-4.8574,-4.8501,-4.8499,-4.8496,-4.8494,-4.8522,-4.8525,-4.8528,0,0,0,0,0,0,0,0,0,0,0,0,0,-4.8428,-4.8431,-4.8545,-4.8546,-4.8546,-4.8574,-4.8574,-4.8574,-4.8501,-4.8499,-4.8496,-4.8493,-4.8521,-4.8525,-4.8528,0,0,0,0,0,0,0,0,0,0,0,0,0,-4.847,-4.8432,-4.8545,-4.8513,-4.851,-4.8574,-4.8574,-4.8575,-4.8502,-4.8498,-4.8495,-4.8492,-4.852,-4.8525,-4.8529,-4.8624,0,0,-4.8542,-4.8544,0,0,0,0,0,0,0,0,-4.8468,-4.8475,-4.8517,-4.8515,-4.8513,-4.853,-4.8543,-4.8591,-4.8503,-4.8505,-4.8494,-4.849,-4.8528,-4.8531,-4.8544,-4.8626,-4.8627,-4.8542,-4.8545,-4.8547,-4.8548,0,0,0,0,0,0,0,-4.8465,-4.8473,-4.8557,-4.8518,-4.8515,-4.8497,-4.8499,-4.8552,-4.8535,-4.8505,-4.8499,-4.8504,-4.8526,-4.854,-4.8544,-4.8627,-4.8542,-4.8546,-4.8549,-4.8551,-4.8789,-4.8793,0,0,0,0,0,0,-4.8467,-4.8471,-4.8556,-4.8557,-4.8481,-4.8502,-4.8504,-4.8528,-4.8535,-4.8532,-4.8507,-4.85,-4.8534,-4.8539,-4.8545,-4.8657,-4.8547,-4.8551,-4.8553,-4.8786,-4.879,-4.8794,0,0,0,0,0,0,-4.8464,-4.8475,-4.8555,-4.8513,-4.8522,-4.8508,-4.8535,-4.853,-4.8545,-4.8536,-4.8533,-4.8524,-4.8532,-4.8539,-4.8605,-4.8657,-4.8553,-4.8557,-4.8781,-4.8787,-4.8792,-4.8882,0,0,0,0,0,0,-4.8461,-4.8474,-4.851,-4.8514,-4.8524,-4.8615,-4.8538,-4.8534,-4.8552,-4.8544,-4.8552,-4.855,-4.853,-4.8599,-4.861,-4.8661,-4.856,-4.8776,-4.8784,-4.879,-4.8874,-4.889,-4.8903,0,0,0,0,0,-4.8457,-4.8534,-4.8513,-4.8523,-4.8569,-4.8618,-4.8623,-4.8599,-4.8557,-4.8593,-4.8588,-4.855,-4.865,-4.8607,-4.8618,-4.8671,-4.8773,-4.8782,-4.879,-4.8868,-4.8887,-4.8903,0,0,0,0,0,0,-4.8536,-4.8534,-4.851,-4.859,-4.8605,-4.8605,-4.865,-4.862,-4.8646,-4.8637,-4.8606,-4.8608,-4.8681,-4.8683,-4.8634,-4.8764,-4.8704,-4.8715,-4.876,-4.8778,-4.8792,-4.8789,-4.8564,0,0,0,0,0,-4.8563,-4.8603,-4.8599,-4.867,-4.8679,-4.8664,-4.8684,-4.8664,-4.8678,-4.8683,-4.8683,-4.8697,-4.8732,-4.8755,-4.8787,-4.8875,-4.8876,-4.8918,-4.8932,-4.8944,-4.8953,-4.9,-4.9018,-4.8822,-4.8822,-4.8822,0,0,-4.8618,-4.8622,-4.8649,-4.8686,-4.8695,-4.8737,-4.8669,-4.8716,-4.8747,-4.869,-4.8752,-4.8753,-4.8767,-4.8845,-4.888,-4.8849,-4.9008,-4.8955,-4.8964,-4.8967,-4.9011,-4.9029,-4.9046,-4.8828,-4.8827,-4.8826,0,0,-4.8741,-4.8748,-4.8808,-4.8819,-4.8833,-4.8823,-4.8838,-4.8843,-4.8841,-4.8904,-4.8863,-4.8899,-4.896,-4.8971,-4.8985,-4.9115,-4.908,-4.9126,-4.9201,-4.9247,-4.9263,-4.9276,-4.9322,-4.9338,-4.9136,-4.9136,-4.9136,0,-4.8807,-4.8869,-4.8843,-4.8893,-4.8911,-4.8863,-4.8923,-4.8935,-4.8959,-4.8972,-4.8939,-4.9014,-4.9021,-4.91,-4.9132,-4.9146,-4.9161,-4.9124,-4.9263,-4.9276,-4.9288,-4.9331,-4.9348,-4.9142,-4.9141,-4.914,-4.914,0,-4.895,-4.8994,-4.9041,-4.9066,-4.9089,-4.9144,-4.9127,-4.9154,-4.9133,-4.9126,-4.9191,-4.9197,-4.9229,-4.9247,-4.9227,-4.9325,-4.9305,-4.9268,-4.9207,-4.9313,-4.9352,-4.9369,-4.9149,-4.9147,-4.9146,-4.9144,0,0,-4.912,-4.9132,-4.9149,-4.916,-4.9174,-4.9207,-4.9261,-4.9292,-4.9316,-4.9335,-4.9379,-4.9432,-4.9398,-4.9414,-4.9395,-4.9436,-4.9537,-4.9393,-4.9393,-4.9419,-4.9645,-4.9672,-4.9691,-4.9516,-4.9519,-4.9521,-4.9643,0,-4.924,-4.9332,-4.9311,-4.9401,-4.9441,-4.9397,-4.9444,-4.9458,-4.9454,-4.9487,-4.9482,-4.952,-4.9473,-4.9482,-4.9521,-4.9517,-4.9582,-4.9508,-4.9555,-4.9557,-4.9551,-4.9712,-4.974,-4.9855,-4.9659,-4.9661,-4.9663,0,-4.9391,-4.9416,-4.9511,-4.9519,-4.9535,-4.9577,-4.9605,-4.9638,-4.9653,-4.9647,-4.9666,-4.964,-4.9693,-4.9634,-4.9706,-4.9657,-4.9675,-4.9677,-4.9681,-4.9682,-4.9615,-4.9717,-4.9891,-4.9908,-4.9688,-4.9686,-4.9684,0,-4.9504,-4.9562,-4.9626,-4.9637,-4.9648,-4.9679,-4.9685,-4.9697,-4.9718,-4.9743,-4.9756,-4.9787,-4.9803,-4.9828,-4.9811,-4.9769,-4.9887,-4.9826,-4.9883,-4.9883,-4.9908,-4.9906,-5.0086,-4.9923,-4.9923,-4.9922,-4.9922,0,-4.9639,-4.9698,-4.9677,-4.9717,-4.9782,-4.9758,-4.9824,-4.9825,-4.9836,-4.9875,-4.9839,-4.9877,-4.9852,-4.9888,-4.9875,-4.9937,-4.9945,-4.9942,-4.9937,-4.9944,-4.9944,-4.9954,-4.9945,-4.9927,-4.9926,-4.9925,-4.9924,0,-4.9775,-4.9764,-4.9831,-4.9836,-4.9839,-4.9887,-4.9892,-4.9928,-4.9923,-4.9972,-4.9983,-4.9973,-5.0013,-4.9999,-5.0042,-5.0034,-5.0113,-5.0099,-5.0107,-5.0103,-5.0161,-5.0155,-5.0352,-5.0376,-5.0199,-5.0201,-5.0202,0,-4.9861,-4.9906,-4.9917,-4.994,-4.9949,-4.9988,-5.0009,-4.9988,-5.0012,-5.0033,-5.0067,-5.0104,-5.0133,-5.0199,-5.0196,-5.0229,-5.0214,-5.0281,-5.0218,-5.0224,-5.0214,-5.021,-5.0215,-5.0293,-5.0295,-5.0296,-5.0298,0,-5.0014,-5.0007,-5.0039,-5.007,-5.0096,-5.012,-5.014,-5.0161,-5.0141,-5.017,-5.0211,-5.0233,-5.0277,-5.0314,-5.0344,-5.035,-5.0321,-5.0318,-5.0332,-5.0339,-5.0341,-5.034,-5.014,-5.0313,-5.0311,-5.031,-5.0309,-5.0309,-5.0127,-5.0165,-5.0178,-5.0216,-5.0229,-5.0249,-5.0284,-5.0283,-5.0316,-5.0351,-5.0337,-5.0384,-5.0398,-5.0435,-5.0446,-5.0483,-5.0457,-5.0478,-5.0484,-5.0489,-5.0496,-5.0338,-5.0488,-5.0488,-5.0487,-5.0487,-5.0487,0,-5.0277,-5.0284,-5.0319,-5.0349,-5.0378,-5.0349,-5.037,-5.0397,-5.0439,-5.0455,-5.0484,-5.0531,-5.0568,-5.0569,-5.0602,-5.0632,-5.0619,-5.0641,-5.0638,-5.064,-5.0517,-5.0501,-5.0651,-5.0651,-5.0651,-5.0651,-5.0651,-5.0651,-5.0359,-5.0421,-5.0416,-5.0484,-5.0491,-5.0537,-5.0551,-5.057,-5.0583,-5.0637,-5.0667,-5.0668,-5.0678,-5.0713,-5.0745,-5.0744,-5.0758,-5.0785,-5.0779,-5.0665,-5.0648,-5.0633,-5.0617,-5.0788,-5.0789,-5.0898,-5.0899,-5.09]},{"header":{"parameterUnit":"m.s-1","parameterCategory":1,"la1":30.2991,"la2":30.254,"lo1":-89.0895,"lo2":-89.0444,"dy":0.0017,"dx":0.0017,"nx":28,"ny":28,"refTime":"2024-04-10T09:00:00:Z","depth":0,"parameterNumber":3,"parameterNumberName":"V-component_of_WINDS"},"data":[0,0,0,0,0,0,0,0,0,0,0,0,0,0,0,0,0,0,0,0,0,0,0,0,0,0,0,0,0,0,0,0,0,0,0,0,0,0,0,0,0,0,0,0,0,0,0,0,0,0,0,0,0,0,0,0,0,0,3.6444,3.6445,0,3.6491,3.6491,3.6492,3.6462,3.646,3.6459,3.6457,3.6503,3.6505,3.6508,0,0,0,0,0,0,0,0,0,0,0,0,0,3.6329,3.6331,3.6444,3.6445,3.6446,3.6491,3.6491,3.6492,3.6462,3.646,3.6458,3.6457,3.6502,3.6505,3.6508,0,0,0,0,0,0,0,0,0,0,0,0,0,3.6377,3.6332,3.6444,3.6436,3.6436,3.6491,3.6491,3.6492,3.6462,3.646,3.6458,3.6456,3.6501,3.6505,3.6508,3.6573,0,0,3.652,3.6522,0,0,0,0,0,0,0,0,3.6375,3.6382,3.6437,3.6437,3.6436,3.6468,3.6467,3.6519,3.6463,3.6452,3.6457,3.6455,3.6493,3.6497,3.651,3.6576,3.6577,3.652,3.6522,3.6524,3.6525,0,0,0,0,0,0,0,3.6371,3.6379,3.6463,3.6437,3.6437,3.643,3.6434,3.6477,3.6484,3.6453,3.6451,3.6457,3.6492,3.6507,3.6511,3.6578,3.652,3.6523,3.6526,3.6527,3.6701,3.6703,0,0,0,0,0,0,3.6369,3.6377,3.6461,3.6464,3.64,3.6433,3.6439,3.646,3.6483,3.6485,3.6459,3.6455,3.6501,3.6507,3.6513,3.6592,3.6524,3.6528,3.653,3.6698,3.6701,3.6704,0,0,0,0,0,0,3.6366,3.6377,3.6459,3.642,3.643,3.6438,3.6462,3.6462,3.6477,3.6487,3.6488,3.6472,3.65,3.6507,3.6559,3.6593,3.6529,3.6533,3.6696,3.6699,3.6703,3.6749,0,0,0,0,0,0,3.6363,3.6376,3.6401,3.6421,3.6432,3.6505,3.6464,3.6465,3.6483,3.648,3.65,3.6502,3.6499,3.6554,3.6563,3.6597,3.6536,3.6693,3.6697,3.6701,3.6745,3.6754,3.6762,0,0,0,0,0,3.6359,3.6411,3.6402,3.6413,3.6463,3.6507,3.6514,3.651,3.6486,3.6511,3.6519,3.6501,3.6588,3.6559,3.6569,3.6605,3.6691,3.6696,3.6701,3.6741,3.6752,3.6762,0,0,0,0,0,0,3.6394,3.6414,3.6404,3.6464,3.6484,3.6502,3.6533,3.6522,3.6549,3.6544,3.6537,3.6542,3.6597,3.6606,3.6574,3.667,3.6635,3.6643,3.6662,3.6673,3.6681,3.6678,3.6539,0,0,0,0,0,3.6408,3.6443,3.6458,3.651,3.6521,3.6526,3.6544,3.654,3.6561,3.6569,3.658,3.66,3.6632,3.6653,3.6682,3.6746,3.6751,3.6775,3.6784,3.6791,3.6798,3.6833,3.6845,3.6721,3.6721,3.6721,0,0,3.6439,3.6454,3.6476,3.6517,3.6532,3.6568,3.6533,3.6572,3.6598,3.6574,3.6624,3.6633,3.6655,3.6714,3.674,3.6723,3.6833,3.6798,3.6803,3.6806,3.684,3.6852,3.6862,3.6725,3.6724,3.6724,0,0,3.6513,3.6528,3.6573,3.659,3.6614,3.6617,3.6628,3.6648,3.6654,3.6704,3.6687,3.6719,3.6773,3.679,3.6806,3.6889,3.6874,3.6899,3.6943,3.6978,3.6988,3.6997,3.7027,3.7038,3.6905,3.6905,3.6905,0,3.6548,3.6601,3.6598,3.6639,3.6658,3.6639,3.6685,3.6701,3.6733,3.6747,3.6728,3.6797,3.6811,3.6873,3.6894,3.6907,3.692,3.6896,3.6987,3.6996,3.7003,3.7033,3.7044,3.6908,3.6908,3.6908,3.6907,0,3.6644,3.6681,3.6715,3.6748,3.6771,3.6814,3.6817,3.684,3.6834,3.684,3.6892,3.6908,3.6941,3.6956,3.695,3.7018,3.7007,3.6988,3.6953,3.7018,3.7046,3.7057,3.6912,3.6911,3.691,3.691,0,0,3.674,3.6772,3.6784,3.68,3.6826,3.6855,3.6898,3.6932,3.6952,3.6975,3.7012,3.7059,3.7042,3.706,3.7056,3.7086,3.7153,3.7063,3.7064,3.708,3.7231,3.7246,3.7259,3.7143,3.7145,3.7147,3.7229,0,3.6816,3.6892,3.689,3.6961,3.6996,3.698,3.7017,3.7037,3.7044,3.7074,3.7081,3.7116,3.7089,3.7101,3.713,3.7138,3.7183,3.7132,3.7177,3.7179,3.7173,3.7273,3.7289,3.7366,3.724,3.7242,3.7243,0,3.6915,3.6944,3.7018,3.704,3.7055,3.7089,3.7121,3.715,3.7173,3.7176,3.7197,3.7188,3.7232,3.7196,3.7257,3.7223,3.7241,3.7248,3.7251,3.7255,3.7215,3.7281,3.739,3.7402,3.7259,3.7258,3.7257,0,3.698,3.7036,3.7088,3.7102,3.7129,3.7154,3.7166,3.7187,3.7208,3.7235,3.7249,3.7281,3.7299,3.7324,3.7324,3.7298,3.7386,3.735,3.739,3.739,3.7409,3.7408,3.7524,3.742,3.742,3.742,3.7419,0,3.7066,3.7112,3.7118,3.715,3.7201,3.7199,3.725,3.726,3.7279,3.7313,3.7301,3.7333,3.7331,3.7364,3.7364,3.7415,3.7423,3.7426,3.7426,3.7428,3.7428,3.744,3.7435,3.7423,3.7422,3.7421,3.7421,0,3.7146,3.7152,3.7208,3.723,3.7236,3.7274,3.7292,3.7323,3.7329,3.7372,3.7382,3.7391,3.7429,3.7432,3.7475,3.7476,3.7538,3.7531,3.7531,3.753,3.757,3.7567,3.7698,3.7716,3.76,3.7601,3.7602,0,3.7201,3.7237,3.7263,3.7285,3.73,3.7335,3.7357,3.7357,3.738,3.741,3.7437,3.7474,3.7503,3.7565,3.7575,3.7608,3.7603,3.7647,3.7608,3.761,3.7605,3.7604,3.7608,3.7655,3.7656,3.7657,3.7658,0,3.7299,3.73,3.7333,3.7367,3.7394,3.742,3.7445,3.7463,3.7466,3.7493,3.7532,3.7555,3.76,3.7637,3.7671,3.7683,3.7672,3.767,3.7681,3.7684,3.7683,3.7685,3.7552,3.7667,3.7666,3.7666,3.7665,3.7665,3.7369,3.74,3.7425,3.7461,3.748,3.7504,3.7535,3.7545,3.7578,3.7615,3.7613,3.7657,3.768,3.7723,3.7738,3.7772,3.7758,3.7774,3.7778,3.7782,3.7787,3.7677,3.7778,3.7778,3.7778,3.7777,3.7777,0,3.7467,3.7482,3.7516,3.7552,3.7581,3.7568,3.7595,3.7621,3.766,3.7682,3.7712,3.7758,3.7794,3.7808,3.7843,3.7868,3.7864,3.7878,3.7876,3.788,3.7797,3.7785,3.7881,3.7881,3.7881,3.7881,3.7881,3.7881,3.7521,3.7575,3.7579,3.7642,3.7656,3.7699,3.7716,3.7738,3.7757,3.7809,3.7839,3.7848,3.7868,3.7905,3.7938,3.7941,3.7955,3.7971,3.7972,3.7895,3.7885,3.7875,3.7863,3.7974,3.7974,3.8052,3.8053,3.8053]}]]